sat.trackr.live / text

‹ back to catalog

STARLINK-30068

NORAD 56698 · 2023-067L

PAYLOAD ACTIVE UNKNOWN

§ Identity

Operator
Country
US
Launch date
2023-05-19
Launch site
AFETR
Launch vehicle
Mass (kg)
RCS (m²)

Purposes: comms

External: N2YO · Heavens-Above · Gunter

§ Orbital elements

Epoch: 2026-05-25T03:48:44.235648Z

Period
94.27 min
Inclination
43.0038°
Eccentricity
0.0001732
Mean motion
15.27578147 rev/d
Perigee alt
481.9 km
Apogee alt
484.2 km
Semi-major
6,861.2 km
B*
1.3101e-5
RAAN
188.0320°
Arg perigee
275.7207°
Mean anomaly
84.3447°
Rev number
16,726

§ Raw data

STARLINK-300681 56698U 23067L   26145.15884532  .00000098  00000+0  13101-4 0  99922 56698  43.0038 188.0320 0001732 275.7207  84.3447 15.27578147167268

JSON: /api/v1/satellites/56698 · /tle

For live sub-satellite position, see the globe view (requires WebGL).

§ Visibility from observer

Set your observer location to see the next 7 days of passes ≥ 10°. The values pass through the URL so the page stays shareable.

No JS? Fill the form by hand. The geolocation button needs JavaScript.